Voltar ao catálogo

COSMOS 877

AtivoMilitarLEO
NORAD 9594·PAYLOAD·🇷🇺 Russia

Lançado Dec 7, 1976 de Plesetsk Cosmodrome

Loading…

Próximas Passagens (próximas 24 horas)

TLE

AtualizadoSource: Space-Track

Época: Sep 14, 2026, 10:25 UTC

1 09594U 76118G   26257.43459876  .00000011  00000-0  17323-3 0  9999
2 09594  74.0311 151.1085 0005608  76.1731  36.7350 12.51341253273418

Acompanhe COSMOS 877 em tempo real com AllMySat

Download on the App Store